Вернуться в каталог

COSMOS 1275 DEB

АктивенPO
NORAD 12703·DEBRIS·🇷🇺 Russia

Запущен Jun 4, 1981 с Plesetsk Cosmodrome

Loading…

Ближайшие Пролёты (ближайшие 24 часа)

TLE

СвежийSource: Space-Track

Эпоха: Sep 14, 2026, 14:24 UTC

1 12703U 81053AX  26257.60023344  .00000698  00000-0  37372-3 0  9992
2 12703  82.9666 126.7333 0015792  72.9116 287.3788 14.11786348299722

Отслеживайте COSMOS 1275 DEB в реальном времени с AllMySat

Download on the App Store